Location: Peebles
(55.6412°N, 3.1714°W)
Time: 22:12:43
(UTC+01:00)

CENTAUR R/B - Pass Details

Date: 21 January 2022
Orbit: 716 x 1471 km, 63.4° (Epoch: 08 May)

Event Time Altitude Azimuth Distance (km) Brightness Sun altitude
Rises 21:04:08 0° 286° (WNW) 3,772 6.5 -38.4°
Reaches altitude 10° 21:06:41 10° 292° (WNW) 2,926 5.7 -38.7°
Enters shadow 21:12:07 44° 336° (NNW) 1,614 3.7 -39.4°
